GFSGL_prec_cthk_000.txt.gz
RH
44 41 46 42 34 33 36 37 35 32 30 24 25 23 22 23 26 30 29 29 31 34 43 55 55 58 53 47 41 41 40 41 39 36 37 36 33 31 31 35 43 45 51
51 49 50 46 37 38 42 40 36 35 31 25 24 24 25 26 27 27 28 31 34 39 46 57 60 51 40 41 44 45 45 50 48 41 39 41 42 38 36 37 44 46 50
52 54 50 50 46 43 45 44 41 38 31 26 27 27 30 32 34 36 37 42 45 47 47 46 45 45 45 47 50 51 54 62 61 52 47 47 45 44 40 40 43 49 50
51 52 51 49 50 50 44 45 40 38 33 30 33 32 34 34 37 39 42 43 46 47 45 46 46 49 49 52 54 60 64 68 65 58 54 52 52 51 50 52 46 53 53
49 55 54 54 53 51 48 45 42 37 33 35 36 36 39 38 39 43 46 44 46 48 48 50 51 52 56 60 66 68 71 71 63 60 56 55 57 59 63 62 57 57 53
54 56 61 66 62 61 53 46 42 35 36 40 40 42 43 44 45 47 49 48 54 51 52 54 53 59 63 67 66 71 69 68 66 61 57 59 63 70 72 73 66 64 58
52 58 73 70 66 56 51 43 39 37 41 43 49 51 51 49 50 48 51 57 60 57 55 53 52 63 69 65 62 65 70 70 60 58 67 74 76 78 76 76 73 68 63
64 66 62 65 62 53 49 42 42 43 43 52 71 79 71 66 54 53 61 63 66 59 55 54 56 64 66 65 62 60 62 55 56 70 74 83 84 81 82 80 75 68 64
56 62 65 65 57 52 48 43 43 46 54 78 81 70 80 75 65 64 61 61 61 58 60 55 62 67 64 55 53 56 55 55 60 77 83 87 86 86 86 84 78 70 63
56 60 63 61 58 53 45 45 47 53 73 80 85 72 73 67 72 51 52 56 57 61 57 57 65 71 62 55 51 55 54 51 63 75 85 90 88 89 93 90 82 75 70
60 62 63 61 60 62 52 53 54 74 78 74 78 79 58 69 58 48 49 49 60 57 58 66 72 65 60 56 56 58 50 42 55 76 91 88 90 93 97 97 84 75 69
67 69 68 76 80 85 66 59 71 73 65 68 66 50 49 38 45 50 58 61 56 53 57 64 68 63 58 54 59 57 47 36 57 76 85 92 92 94 98 87 83 77 66
74 78 66 75 87 87 94 78 69 64 64 57 50 43 38 39 52 52 52 54 55 56 58 65 66 61 56 54 53 51 38 40 54 73 85 94 94 96 97 92 80 73 67
78 79 79 70 74 78 74 67 66 57 50 46 40 37 36 44 48 50 54 57 59 63 68 73 68 61 58 54 49 43 38 44 57 68 83 92 93 95 97 91 83 79 78
78 75 71 71 63 64 61 52 43 46 43 49 46 46 47 50 50 51 56 58 57 58 62 72 62 61 62 52 48 46 42 48 57 65 73 88 91 94 98 91 90 91 90
74 74 75 70 65 60 51 53 50 50 52 53 54 52 50 53 51 55 58 59 62 68 71 71 62 57 46 45 47 46 45 50 56 63 70 77 88 98 95 95 89 91 91
71 71 64 63 60 62 53 46 53 55 58 56 52 52 55 55 57 58 63 62 62 69 74 68 57 50 49 48 49 48 46 47 50 56 58 68 73 88 93 95 94 93 95
54 63 63 68 59 49 42 46 56 56 55 54 54 57 58 62 63 62 65 64 66 65 62 61 60 58 57 53 50 50 48 44 46 46 47 50 55 70 87 94 94 95 97
67 68 65 62 48 43 56 64 63 56 55 58 61 62 66 67 68 69 67 66 67 65 63 64 58 54 52 52 51 49 47 44 41 41 39 35 39 44 66 91 92 94 96
64 73 75 69 53 59 54 58 60 59 64 67 66 68 70 72 70 68 62 61 62 61 64 61 55 48 45 45 41 32 30 31 31 29 26 26 28 27 45 65 85 94 92
60 64 66 63 60 61 58 65 66 64 67 73 76 79 76 71 67 61 55 52 53 49 45 44 46 46 45 44 34 23 18 21 22 21 19 18 20 26 35 49 62 82 90
62 68 63 64 63 65 70 74 69 69 73 74 76 77 78 75 67 60 55 53 52 45 40 34 30 28 26 22 18 17 17 19 17 17 17 18 19 19 22 31 45 58 72
50 53 57 59 64 66 69 69 70 73 76 80 74 72 71 71 66 58 53 46 40 36 32 26 20 17 14 12 11 12 13 14 14 14 15 15 15 14 14 16 23 36 48
50 56 60 64 63 61 62 71 79 77 77 75 63 65 64 62 60 55 46 41 37 32 28 19 17 15 13 13 12 13 14 14 14 15 14 14 14 14 13 13 13 13 19
59 65 64 61 57 59 62 67 69 66 64 63 61 59 54 50 47 42 36 32 28 24 20 17 16 16 15 14 14 15 16 17 17 16 15 14 14 14 14 14 14 14 13
61 55 50 53 53 55 59 61 63 60 59 61 56 50 47 46 44 40 35 32 28 19 15 14 15 14 14 15 17 18 19 21 21 20 19 17 16 14 15 15 14 14 14

GFSGL_prec_cthk_003.txt.gz
RH
44 41 41 42 47 53 46 39 37 37 37 37 37 31 26 22 21 22 25 28 30 33 34 37 41 52 55 56 48 42 42 41 38 34 37 34 31 33 33 32 30 29 26
52 51 48 51 50 57 54 50 40 36 38 41 38 31 27 24 26 28 29 32 34 36 40 48 50 49 44 46 46 46 46 46 45 42 43 43 39 38 36 34 33 32 31
50 55 54 56 57 59 57 52 51 38 39 40 40 32 29 26 28 30 32 36 39 40 44 42 42 42 43 45 51 53 50 53 58 60 56 53 48 47 43 40 39 37 36
44 50 51 57 56 59 55 54 50 44 44 44 41 37 32 32 36 37 40 39 38 37 41 42 42 43 47 53 55 57 65 67 68 69 63 58 52 48 43 44 41 45 42
44 48 53 62 61 64 56 57 53 50 47 43 45 41 39 41 44 48 48 42 41 42 46 47 45 47 48 53 57 61 65 63 66 65 62 57 52 48 51 52 50 53 47
44 50 55 73 67 65 61 61 54 52 49 46 49 45 47 55 58 54 51 47 54 52 50 50 47 44 47 50 57 65 67 67 70 66 62 55 50 55 58 66 65 64 55
37 57 70 53 74 71 67 72 53 52 52 54 54 50 51 61 60 63 63 56 62 53 52 53 45 47 48 49 55 60 63 62 62 61 56 55 63 69 71 77 74 77 71
53 53 80 81 74 72 67 61 56 56 58 64 54 54 59 72 67 65 62 62 51 50 52 53 47 50 51 55 58 61 59 58 61 61 58 58 66 79 86 83 81 78 76
34 44 79 81 72 68 66 59 56 57 66 67 58 60 75 80 70 64 57 49 43 42 45 50 49 51 56 66 65 64 61 58 60 57 48 53 66 88 87 83 85 85 78
42 55 64 74 72 65 64 51 57 63 71 74 72 77 85 81 65 47 43 41 41 43 52 55 48 50 64 69 67 64 62 58 55 45 37 53 75 84 88 91 91 89 87
45 50 65 71 65 67 68 61 67 80 81 84 80 77 79 74 56 39 39 47 49 53 54 48 45 49 57 66 67 62 57 57 49 36 39 56 74 81 87 92 98 97 94
52 64 68 68 71 71 70 71 73 74 84 96 82 80 81 60 41 39 42 50 47 47 49 46 49 55 64 67 69 59 56 48 41 37 48 61 74 80 85 89 98 99 90
53 61 68 74 76 76 81 79 79 72 69 73 74 72 55 47 47 42 46 47 43 50 52 49 51 57 72 74 71 63 54 46 44 43 50 59 73 80 87 90 98 94 88
69 75 80 80 80 84 81 88 71 66 62 64 62 58 50 49 48 48 48 45 46 52 51 51 58 65 72 57 58 62 56 50 46 47 52 57 69 79 90 93 97 94 87
81 87 77 80 85 79 80 77 70 64 70 65 53 55 51 49 48 46 47 48 50 52 56 62 73 77 67 60 51 44 47 49 48 53 54 54 61 70 90 94 97 90 87
78 73 74 84 81 75 56 57 59 62 60 51 51 58 54 49 45 47 51 52 54 57 58 65 71 77 64 52 49 51 51 50 47 46 48 50 50 61 80 93 96 96 95
71 67 68 69 61 49 57 62 69 74 63 53 57 62 55 48 47 51 56 55 59 56 61 65 60 56 57 56 57 56 54 51 47 44 42 42 40 46 64 89 97 98 95
59 54 48 48 54 63 66 70 69 68 61 63 61 59 53 50 53 56 59 59 60 60 64 59 54 50 49 50 52 52 52 49 46 42 38 37 34 36 43 80 93 96 95
46 49 51 49 53 53 61 68 69 68 70 63 62 64 59 58 62 65 64 63 66 66 63 59 59 56 53 53 47 45 40 36 33 29 27 25 27 27 41 61 79 92 96
51 50 46 51 61 61 63 66 67 68 67 64 66 64 66 69 69 68 62 59 60 57 53 52 52 49 47 49 47 43 38 29 25 23 22 22 22 24 35 52 63 77 93
59 59 58 56 59 61 66 65 67 73 81 72 69 69 68 71 74 73 68 61 54 52 52 51 49 46 40 36 32 27 26 25 24 22 21 21 20 20 24 35 50 56 75
54 55 53 56 56 54 59 66 68 70 73 73 74 71 73 74 78 77 70 61 55 52 50 44 37 30 24 20 16 16 17 17 17 18 18 17 16 16 17 20 30 38 49
53 47 45 45 50 56 59 63 64 65 70 77 79 79 84 75 71 66 61 57 54 48 42 39 28 20 15 13 13 14 15 15 15 15 15 15 15 15 14 14 15 19 30
46 49 54 57 57 65 70 68 64 67 70 73 74 77 75 65 60 56 53 47 42 38 35 31 20 17 14 14 14 15 16 16 16 15 15 14 14 13 14 14 14 13 14
58 61 62 60 57 53 53 56 57 58 59 60 61 57 60 60 53 52 47 39 33 30 23 19 16 16 16 14 14 15 16 17 18 18 17 16 15 14 14 14 13 13 14
50 48 51 50 47 45 47 49 49 51 53 53 50 52 54 52 49 48 43 37 34 30 23 18 16 14 14 14 15 17 18 20 22 22 22 21 19 17 17 16 15 14 15

GFSGL_prec_cthk_006.txt.gz
RH
37 38 42 60 48 46 42 46 52 52 50 41 36 35 37 30 28 22 22 25 27 30 34 36 37 42 45 46 46 43 40 39 40 38 37 37 37 38 39 36 34 32 30
44 46 60 36 65 46 47 54 53 56 50 48 41 38 38 35 31 27 28 29 31 35 39 40 39 38 38 41 43 41 42 44 47 48 48 47 49 50 47 43 41 39 34
47 56 59 57 53 58 52 57 54 59 48 49 48 44 43 36 33 30 35 39 40 41 38 38 38 38 38 38 39 39 43 46 51 52 50 52 54 56 50 45 43 40 36
45 51 59 63 63 71 58 56 57 60 52 54 55 51 50 43 37 35 43 45 44 44 44 41 42 40 38 40 40 40 44 48 53 53 51 50 53 53 52 47 46 46 41
39 39 44 49 58 60 61 68 69 61 59 57 57 56 55 55 47 39 45 52 53 51 48 45 45 43 42 41 38 40 45 49 54 57 52 52 53 53 51 49 48 45 44
40 36 42 55 65 72 81 84 69 62 62 59 63 56 59 63 55 46 49 59 61 58 51 49 44 44 45 44 40 43 46 47 54 55 53 49 50 53 51 45 45 48 54
44 45 50 57 62 78 95 88 82 69 67 61 52 57 62 67 61 56 60 66 65 61 48 42 41 39 46 48 47 50 52 57 60 62 60 52 52 50 43 46 55 61 65
35 42 56 59 68 72 76 77 84 77 61 54 61 64 65 75 68 72 77 74 68 56 43 41 40 44 50 51 50 53 58 65 68 67 64 56 52 41 40 55 64 68 65
34 35 38 54 61 72 78 73 87 76 59 63 64 71 77 80 79 79 82 73 61 48 38 40 44 48 50 52 47 56 60 65 69 64 59 58 47 37 52 62 69 74 69
39 37 43 49 60 70 83 78 81 74 65 73 73 74 81 91 91 87 85 76 46 37 41 44 45 48 49 47 45 51 54 65 64 53 50 42 39 46 59 69 76 78 78
46 52 48 49 58 68 78 86 83 72 71 74 73 76 80 90 84 88 80 59 41 42 42 41 44 46 46 46 49 57 65 67 64 51 43 43 42 49 59 60 73 84 89
47 56 55 53 61 73 84 90 84 79 80 83 78 74 75 78 86 84 64 44 46 45 41 41 47 49 47 50 56 57 62 57 55 50 48 47 45 52 55 64 83 91 95
60 64 62 67 67 79 84 86 88 88 83 80 80 67 73 72 71 55 48 49 47 45 42 44 49 49 49 56 64 65 54 49 55 59 52 49 52 52 51 66 81 93 97
65 74 78 81 79 81 80 80 85 84 79 77 76 66 69 67 62 56 52 49 47 43 44 49 50 52 56 63 73 64 57 42 44 46 47 46 46 46 47 63 83 96 96
63 67 72 73 78 79 79 78 86 82 69 63 63 66 66 64 61 56 52 49 47 46 50 51 53 55 60 68 71 57 49 52 53 51 46 43 42 41 38 57 83 93 97
56 57 64 75 74 66 61 64 63 56 55 62 70 70 65 64 61 60 57 50 49 51 53 55 55 58 63 60 53 50 53 53 54 52 48 44 40 36 32 42 78 93 95
52 57 60 59 61 67 56 45 44 51 58 65 73 69 66 65 63 62 58 53 54 55 56 56 57 59 50 49 49 46 49 50 49 46 41 36 30 27 30 44 68 87 92
51 58 59 53 54 50 49 53 58 66 71 69 65 62 65 65 63 64 62 61 60 61 62 61 57 59 57 57 56 54 50 45 40 37 31 26 22 24 32 49 60 81 89
54 54 56 56 50 51 55 61 64 65 64 62 63 64 65 66 64 62 65 65 65 65 65 65 60 58 54 51 48 44 45 40 36 32 26 22 21 22 29 44 55 69 77
60 68 71 64 61 61 58 58 59 62 64 64 62 63 64 61 62 65 65 62 61 60 57 56 54 53 52 48 45 41 33 27 26 27 24 23 22 21 21 31 46 53 60
72 70 71 61 55 53 53 53 52 58 59 61 65 64 65 70 73 70 68 67 69 67 59 53 51 49 44 38 32 24 19 18 18 18 19 18 18 17 17 20 30 43 52
82 75 63 62 59 54 53 53 57 61 66 67 62 60 62 66 67 69 70 68 65 59 55 53 48 40 31 25 19 16 15 15 16 17 16 15 14 14 15 15 16 26 36
72 66 65 58 53 51 56 61 65 64 65 61 59 60 67 69 69 65 64 57 53 52 51 47 41 31 23 17 15 15 16 17 16 15 15 15 14 13 13 13 13 13 17
75 69 56 49 56 63 64 64 62 58 54 54 59 64 65 61 62 58 56 51 44 41 39 34 28 20 16 14 14 15 15 16 16 16 16 16 15 15 14 13 13 13 13
65 48 46 53 51 54 56 53 47 48 46 53 56 55 59 59 57 53 52 49 44 40 34 26 20 18 17 15 14 14 15 16 17 18 19 20 19 18 17 15 15 14 14
44 51 55 46 44 45 43 43 43 44 44 44 45 46 46 45 46 46 44 42 41 37 30 26 21 17 16 16 14 15 16 17 18 21 23 23 22 21 20 18 16 16 16

GFSGL_prec_cthk_009.txt.gz
RH
32 35 37 37 45 56 46 49 49 45 55 50 52 48 46 41 38 32 26 25 28 31 35 37 36 40 42 40 38 37 41 41 41 34 41 43 38 40 40 41 41 38 35
41 41 43 43 44 53 59 53 56 40 52 56 54 51 49 47 48 42 36 30 34 37 38 38 38 39 37 38 36 34 41 42 41 42 35 42 45 46 44 44 47 46 41
51 48 46 46 50 47 64 51 54 50 48 59 63 56 54 53 53 46 43 42 34 40 42 45 45 45 42 39 37 37 41 44 48 43 43 42 44 46 46 45 47 47 44
48 46 49 51 55 57 52 59 64 62 62 66 66 60 60 59 59 52 50 50 43 40 49 50 50 51 44 40 39 39 38 39 44 44 43 44 48 48 43 46 48 53 51
45 47 46 49 54 60 69 76 82 77 83 77 71 61 60 62 57 55 57 57 53 51 51 51 52 49 43 40 38 36 38 41 47 49 50 50 51 50 50 49 50 50 43
44 42 44 49 50 57 66 67 79 87 79 83 78 62 70 67 56 61 63 66 63 63 64 59 59 53 45 42 39 42 46 46 48 53 55 55 56 57 56 57 49 42 37
41 41 43 45 50 58 63 71 75 82 88 80 79 69 74 61 60 65 68 74 72 72 72 72 66 55 43 41 43 45 48 48 49 53 56 58 57 54 53 48 41 35 33
33 34 37 40 49 55 62 66 74 82 76 82 76 76 66 61 64 69 74 78 81 83 78 73 65 50 47 44 45 44 46 47 52 56 55 56 59 54 47 41 35 37 41
33 35 40 40 45 48 53 58 65 71 74 82 81 75 71 67 68 66 76 79 88 90 87 71 56 44 42 42 43 43 45 47 49 52 56 55 55 48 45 44 41 44 46
38 42 47 48 54 58 61 60 63 68 77 85 84 82 75 72 69 73 78 79 81 90 83 62 48 44 41 40 41 42 44 48 53 54 52 50 52 51 49 50 47 49 50
46 49 50 53 55 52 58 61 66 74 85 95 88 86 81 78 81 77 75 72 78 84 64 54 46 44 39 39 43 45 48 54 60 53 38 40 52 53 56 50 48 51 56
50 49 50 52 57 56 58 65 73 80 83 84 83 88 81 85 83 83 79 75 78 65 58 49 46 43 40 43 48 48 53 65 61 44 44 46 54 58 46 41 40 41 61
48 50 53 59 63 62 62 66 77 87 80 79 84 81 80 76 75 72 68 65 58 57 54 48 48 45 44 50 55 55 60 69 57 48 46 46 44 40 37 37 35 35 59
47 60 62 62 63 66 61 65 76 83 79 68 79 86 80 71 64 71 72 63 60 58 56 51 49 49 55 57 59 61 64 65 47 48 49 45 45 44 39 36 32 37 63
55 57 53 50 57 59 56 64 70 73 71 73 71 72 62 61 64 70 67 63 59 60 61 56 53 56 62 61 62 65 57 46 45 48 48 46 43 37 30 29 36 50 68
50 50 48 48 53 57 60 59 64 62 71 72 65 64 59 64 68 63 62 62 62 60 59 58 59 63 63 63 58 50 48 46 46 47 44 39 35 28 24 28 45 56 64
45 48 49 52 55 60 58 55 54 56 56 59 60 63 67 65 65 61 60 64 65 63 62 62 64 67 66 61 57 58 54 51 48 46 40 35 30 23 23 34 49 54 61
46 47 50 49 48 50 54 52 52 55 59 61 63 64 62 62 60 59 60 61 60 61 63 65 69 71 67 64 61 58 50 44 40 37 34 30 29 25 25 30 43 50 54
39 41 45 46 45 52 59 60 62 65 64 62 61 59 57 55 53 54 55 55 59 59 58 58 59 62 63 58 54 52 47 40 33 28 25 24 25 24 24 27 34 45 52
38 41 45 53 62 61 62 60 57 56 57 55 55 54 58 57 55 57 57 60 63 62 61 62 63 60 55 53 51 46 36 29 23 21 20 19 17 19 19 20 27 36 43
43 56 70 70 71 64 59 57 54 52 50 50 56 54 59 59 60 52 50 54 59 63 61 61 59 53 49 45 39 30 23 19 16 16 16 17 15 16 16 16 17 29 35
73 75 83 78 72 68 65 58 53 51 51 57 59 60 61 57 52 51 54 58 58 56 53 53 53 51 45 35 28 22 19 17 17 17 17 17 17 16 16 15 15 16 22
78 81 79 70 66 62 59 55 53 59 59 62 62 57 52 52 53 56 54 54 51 50 45 42 43 40 30 21 18 16 16 18 17 16 16 15 18 16 16 15 15 15 16
67 68 72 77 73 61 50 52 55 57 59 54 51 50 50 53 58 58 52 51 46 44 41 38 36 32 22 17 15 15 16 16 16 17 17 17 20 19 18 17 16 16 16
70 75 70 62 52 46 50 50 50 49 45 44 44 47 50 52 52 48 42 39 39 38 35 32 29 22 18 17 16 15 15 16 16 18 20 21 21 21 21 20 19 18 18
62 54 48 47 52 52 47 41 39 37 37 39 39 40 41 40 40 39 38 39 39 38 36 33 27 21 18 18 17 16 16 15 16 16 19 23 26 24 22 21 20 19 18

GFSGL_prec_cthk_015.txt.gz
RH
25 26 27 33 39 36 36 41 43 47 59 54 55 60 61 62 61 57 59 60 64 57 53 51 51 50 50 55 57 58 56 50 47 45 48 49 45 46 46 50 47 45 42
23 24 30 35 37 40 40 46 47 44 50 49 50 54 57 60 64 67 67 61 64 62 58 58 59 61 64 60 61 64 66 56 47 41 42 40 38 38 44 42 43 45 43
29 30 34 34 35 38 45 45 50 49 47 49 49 53 52 55 68 77 78 71 65 66 64 61 60 66 68 71 67 60 53 51 55 51 48 42 43 43 46 40 45 55 51
34 39 38 38 36 42 47 50 53 54 50 50 50 48 50 53 67 73 75 75 67 70 65 63 63 68 73 80 80 77 70 67 62 62 56 49 46 47 59 50 52 53 55
36 39 39 40 42 44 48 52 54 56 55 52 51 48 52 56 63 67 72 71 71 73 67 66 67 70 72 76 80 81 76 73 68 58 54 51 49 52 55 53 54 50 48
38 37 38 43 44 48 54 56 57 55 59 61 58 56 57 59 63 62 67 71 69 76 73 75 73 73 74 75 82 83 82 76 67 59 57 47 47 50 56 55 50 48 45
35 36 39 41 43 50 53 55 56 58 60 60 65 63 59 60 61 66 68 76 74 80 83 79 75 81 85 85 84 86 84 76 68 61 50 46 49 49 46 45 47 45 40
31 33 39 45 50 51 51 49 47 53 56 61 65 64 61 62 66 70 79 79 83 83 79 79 81 83 83 87 90 94 91 83 74 57 46 44 47 46 47 51 46 36 34
31 34 39 43 46 46 46 46 47 51 58 60 64 64 62 67 67 73 83 80 82 84 82 80 81 84 88 90 89 87 84 73 60 49 50 48 48 48 55 48 42 40 40
38 39 39 38 40 43 46 47 49 58 60 60 63 63 61 66 73 79 79 72 71 82 88 80 86 85 88 87 86 78 68 58 53 52 55 52 50 53 56 50 49 52 53
37 36 37 39 41 44 45 49 56 62 64 65 66 63 58 68 70 75 73 73 70 77 81 76 80 81 82 81 73 66 54 53 49 50 53 53 61 62 58 53 50 50 50
37 39 41 41 42 47 48 53 58 64 66 67 63 63 59 66 68 68 72 70 75 76 74 71 74 76 81 73 64 54 54 52 51 56 57 59 61 53 46 46 40 42 40
42 43 42 44 46 47 51 57 61 65 64 60 62 58 59 69 74 72 76 76 73 72 79 79 79 76 71 64 59 59 56 54 56 60 62 54 47 47 44 45 44 41 37
45 44 44 46 48 51 56 62 66 58 55 56 58 59 64 71 72 76 73 72 75 80 76 73 75 73 67 60 58 57 55 57 63 60 51 55 51 52 49 44 39 34 32
41 43 47 50 53 58 61 61 61 51 50 53 60 63 66 68 68 67 75 79 82 76 83 84 76 65 63 62 61 60 60 61 66 62 58 57 52 49 41 35 30 33 37
48 49 51 54 57 57 57 58 53 52 54 60 59 58 59 57 59 68 73 84 77 70 75 75 70 64 62 61 62 65 67 67 65 66 60 50 48 45 38 31 34 35 37
55 56 56 58 55 58 58 54 52 48 48 48 46 46 48 55 56 58 65 70 70 67 65 61 57 61 62 62 64 67 67 66 62 60 53 51 46 41 35 32 31 32 34
54 51 51 55 52 45 45 44 43 40 37 36 38 44 53 58 63 64 64 61 56 52 51 55 58 54 60 60 59 59 61 60 56 53 49 43 39 34 30 31 29 28 27
48 48 50 44 45 41 37 41 43 43 44 45 46 53 60 60 60 59 55 50 52 54 56 53 48 49 52 55 57 60 60 52 48 41 38 34 31 28 28 27 26 26 25
48 47 42 39 35 37 40 39 41 47 56 68 58 59 59 58 56 51 48 50 53 53 49 42 42 45 48 53 55 56 51 46 41 36 34 28 28 25 28 26 26 25 25
42 42 38 41 41 41 40 45 55 62 68 67 61 62 54 51 51 55 53 54 52 47 43 42 44 40 41 41 43 45 42 38 36 30 27 26 26 26 28 27 25 24 24
46 46 39 47 50 46 50 56 67 71 69 68 67 62 59 57 55 58 53 49 45 43 44 43 38 36 36 35 35 33 31 32 30 25 23 24 23 26 23 26 24 24 24
50 52 48 49 56 52 65 68 71 67 66 72 65 57 56 55 53 48 46 45 44 44 43 41 33 32 30 27 24 24 25 27 24 22 22 24 24 26 25 27 26 25 25
58 51 60 70 60 69 72 70 65 68 72 60 50 52 48 49 45 45 48 44 43 43 43 36 31 30 28 24 21 20 21 21 18 20 22 22 25 25 27 28 27 27 26
62 57 54 67 75 69 70 62 66 65 58 52 49 51 49 49 47 48 49 44 43 43 41 38 35 33 30 24 19 18 16 16 15 15 16 20 23 25 28 28 26 27 27
73 71 69 64 63 62 63 63 61 60 59 54 56 48 46 45 46 47 42 43 47 46 41 40 39 35 30 25 21 15 13 12 14 14 13 15 23 25 25 24 25 26 26

GFSGL_prec_cthk_021.txt.gz
RH
30 24 20 19 24 25 26 29 38 41 42 43 44 45 48 50 50 48 49 50 54 59 61 60 62 62 59 61 65 68 68 67 62 62 62 62 56 54 47 44 41 37 38
30 26 20 21 22 23 27 32 35 42 42 39 41 46 50 52 53 50 50 48 49 56 58 62 64 63 67 60 69 76 74 72 69 65 67 67 66 63 55 52 49 46 43
28 25 20 20 21 23 26 31 35 37 37 40 43 48 51 54 53 53 51 49 48 53 54 59 60 61 63 66 68 73 77 77 76 74 73 74 73 72 68 62 56 53 51
28 23 20 19 22 23 27 29 33 36 39 41 43 46 48 51 57 56 55 53 51 57 54 60 63 64 70 69 74 75 79 81 81 83 82 83 78 80 76 69 63 63 56
28 21 21 22 24 26 28 28 28 33 38 42 44 46 49 53 53 57 60 58 52 52 54 60 63 65 67 77 82 83 82 86 88 92 90 84 83 80 73 65 56 50 47
33 23 21 25 28 29 30 30 32 36 39 42 45 49 53 54 53 63 65 66 57 51 54 60 64 67 69 81 79 87 91 94 94 91 91 86 85 81 65 59 55 53 48
33 32 25 24 27 31 32 33 36 39 42 43 47 52 56 60 63 70 70 72 63 53 53 58 67 74 74 73 82 86 89 93 85 90 88 82 71 68 62 59 56 56 53
31 35 33 25 25 32 35 36 40 42 45 49 56 60 60 62 68 70 71 74 66 53 54 58 67 73 74 69 79 86 88 85 83 86 86 70 67 64 60 59 57 52 51
33 35 34 33 29 29 35 39 42 48 53 57 60 57 61 61 65 67 75 69 66 57 57 61 68 70 71 68 74 79 80 84 86 84 70 61 59 59 58 58 56 54 50
30 35 36 38 33 30 35 42 45 51 57 61 56 57 59 61 64 71 73 67 61 57 61 61 67 77 69 68 72 75 81 84 83 75 69 66 66 63 61 57 53 52 52
29 39 41 41 36 34 40 46 50 58 66 58 56 60 62 61 66 70 68 62 60 58 63 66 70 69 64 70 76 77 82 84 81 77 70 69 65 58 53 54 50 52 50
35 43 44 43 40 44 48 52 63 71 58 59 56 56 58 65 69 68 65 61 63 65 65 67 66 65 69 75 78 83 83 81 77 75 68 58 53 51 52 52 52 53 51
44 50 50 50 48 50 55 65 67 63 61 59 55 55 64 67 63 62 57 60 62 66 63 61 59 65 70 75 81 83 79 76 69 60 54 53 54 56 57 58 57 52 44
46 54 55 55 56 59 62 65 62 55 55 54 57 62 66 61 56 54 55 55 59 59 64 57 63 66 73 78 80 75 68 62 56 52 53 56 57 57 56 56 50 46 44
46 58 64 63 63 64 61 57 55 56 57 58 61 64 59 55 55 52 53 50 50 52 55 62 67 68 70 70 66 58 56 54 54 50 51 55 59 59 54 51 45 42 40
59 69 74 65 56 53 56 58 57 57 57 61 64 61 58 58 50 47 44 40 45 55 59 58 56 57 60 56 52 48 48 48 51 49 51 54 57 53 47 40 37 33 30
64 68 63 58 57 57 55 54 57 61 61 60 58 59 54 49 42 39 37 45 48 48 49 52 51 51 46 45 46 42 43 45 47 53 50 52 54 45 40 33 29 27 26
62 63 62 57 54 56 59 59 62 67 67 56 55 49 45 43 38 38 45 44 45 48 51 50 45 43 45 44 41 41 42 43 44 47 48 51 46 37 31 27 26 27 26
58 57 54 51 53 56 57 60 58 59 54 50 43 42 36 36 43 46 46 44 47 47 44 46 43 38 42 41 37 36 35 35 38 41 41 35 33 30 25 23 24 24 25
66 64 56 61 63 65 58 57 63 60 50 44 40 33 33 39 42 42 42 43 44 47 45 45 43 42 42 39 34 32 30 32 31 29 28 28 27 22 21 23 23 23 25
69 71 72 74 78 70 61 53 55 50 50 44 37 37 38 47 49 47 43 44 45 45 44 41 40 39 37 32 28 24 22 21 21 22 23 24 21 19 22 22 23 25 25
73 80 76 75 73 61 55 55 57 52 45 51 48 50 54 53 52 51 48 41 43 42 39 35 35 36 34 29 24 24 23 23 21 22 22 21 19 20 22 23 23 23 24
68 59 69 74 66 62 68 71 60 53 52 57 57 68 66 62 53 53 47 37 36 39 39 35 36 37 34 28 24 24 21 19 20 21 22 20 17 20 21 22 22 22 25
83 82 71 70 77 86 83 65 62 59 67 68 64 77 71 59 54 54 47 42 42 41 39 36 36 36 34 27 25 25 20 17 17 18 18 14 15 20 21 20 21 21 23
75 75 72 80 84 81 73 70 65 74 71 75 69 73 73 56 52 48 49 43 42 39 35 35 35 35 33 30 28 24 21 18 17 15 14 13 14 19 20 20 20 20 21
71 80 80 77 75 84 78 81 66 70 80 77 69 66 60 55 46 47 45 39 37 37 37 34 32 30 31 29 30 28 22 18 16 12 11 12 14 19 20 21 19 19 20

GFSGL_prec_cthk_024.txt.gz
RH
29 30 25 23 23 23 25 24 28 33 35 38 42 41 45 50 52 51 48 49 49 51 55 54 52 53 57 62 67 70 70 71 75 80 75 71 68 67 65 62 58 56 55
30 32 26 21 22 22 22 24 31 36 38 37 39 41 45 50 55 56 55 52 51 48 52 53 52 53 56 58 63 71 69 75 81 80 80 78 75 75 72 67 64 61 59
30 32 31 21 19 22 21 26 29 34 36 39 42 43 45 51 53 53 55 55 52 49 45 48 51 56 58 58 62 64 76 78 83 85 86 82 83 83 83 84 83 78 71
30 29 29 21 16 19 24 28 30 31 34 38 42 45 47 50 53 51 52 52 55 56 51 46 47 54 57 61 61 61 80 82 82 87 89 91 90 90 87 86 83 78 74
30 26 25 22 18 19 24 26 29 29 31 34 40 44 46 49 55 53 52 54 57 62 61 51 49 52 57 66 62 65 70 77 78 85 87 93 86 89 91 88 81 77 69
34 29 25 22 21 21 23 26 26 27 31 35 40 41 44 48 54 54 54 56 62 70 68 55 48 53 55 64 65 68 67 72 79 86 86 84 82 85 82 73 73 67 62
32 32 31 24 19 21 26 28 26 26 28 33 38 40 44 48 52 58 62 64 69 71 71 60 50 52 55 59 68 72 68 74 82 90 80 90 91 85 72 70 66 62 59
30 32 34 32 26 21 24 28 28 30 33 36 39 42 45 51 64 67 68 66 67 73 71 66 57 54 56 61 74 76 67 73 80 79 86 85 87 78 70 67 66 61 59
33 31 30 36 36 28 23 26 31 35 36 37 41 47 56 64 65 62 64 63 68 70 69 66 61 57 61 67 80 75 71 74 79 80 85 88 84 74 70 71 70 65 62
32 27 26 34 40 40 31 27 30 35 39 42 49 57 63 64 59 62 62 64 73 66 62 60 59 58 62 72 76 67 67 76 77 82 83 84 81 77 73 68 61 54 53
32 31 30 30 39 42 45 41 33 34 42 49 56 61 71 64 61 60 62 71 69 63 57 53 53 56 61 68 66 63 76 85 81 85 89 82 73 67 58 53 53 51 48
35 34 33 31 37 44 47 48 44 42 48 53 61 67 62 70 67 65 67 67 68 60 53 54 56 60 66 61 64 67 75 82 81 84 78 68 57 51 49 51 54 55 56
37 36 34 33 37 42 45 47 46 49 55 62 74 59 65 69 64 67 69 68 60 52 53 57 55 55 57 57 67 71 75 79 79 70 62 53 49 47 49 51 52 54 53
36 38 30 33 34 41 43 46 48 55 61 66 70 77 67 64 58 67 66 62 54 52 50 51 49 53 56 60 62 66 65 64 58 51 48 46 44 47 49 52 51 47 42
39 44 45 44 44 43 48 56 62 65 72 68 64 61 65 62 64 64 65 61 55 52 45 44 49 55 58 57 59 59 56 51 48 44 42 42 44 47 50 51 49 39 35
48 45 52 52 52 56 65 72 83 84 95 70 60 60 63 65 62 64 66 59 46 40 41 48 53 52 50 51 49 45 43 43 38 39 40 42 44 47 50 49 40 32 29
60 52 54 70 69 77 87 82 96 82 65 65 58 60 60 58 64 60 53 44 35 38 45 45 46 46 46 42 39 36 36 35 36 38 42 43 44 44 45 41 30 25 23
66 69 69 93 76 70 70 59 63 69 64 58 54 57 61 63 61 54 50 36 40 41 41 42 45 44 39 38 37 35 30 31 33 34 37 40 39 40 35 26 21 20 22
83 83 60 56 56 54 52 48 52 65 62 62 66 66 66 65 62 44 36 36 40 42 43 40 38 37 37 36 35 33 33 35 32 32 33 32 30 27 25 21 19 21 22
64 70 64 60 63 63 55 56 65 66 70 65 56 53 49 40 41 42 37 38 43 44 40 41 42 40 37 35 34 33 33 28 25 25 24 22 22 23 21 18 21 22 23
58 55 53 52 49 45 44 54 63 64 59 57 48 45 44 39 39 35 38 42 43 41 40 40 41 38 36 36 35 34 27 19 17 17 17 19 22 22 19 19 22 23 22
67 72 69 66 64 64 65 63 65 61 57 58 54 46 44 48 44 43 49 51 47 41 36 39 39 37 34 32 29 28 23 18 18 18 18 20 20 20 18 19 21 21 21
78 78 80 82 79 74 75 73 64 59 62 63 71 72 57 55 58 60 60 52 51 47 38 38 37 37 35 32 29 26 21 20 18 17 18 20 20 17 17 20 21 21 20
81 80 76 75 79 77 75 75 75 73 78 76 68 67 74 71 70 72 64 54 51 51 43 43 38 36 35 32 27 24 23 21 17 16 16 16 15 11 16 18 21 21 20
83 83 83 77 65 70 80 82 81 87 88 82 69 75 79 76 68 64 70 57 51 51 50 49 38 36 35 31 28 26 22 20 18 17 15 14 12 11 13 17 19 20 20
77 78 84 81 81 79 85 91 92 90 81 75 74 73 67 70 74 70 60 50 48 47 46 43 38 36 32 30 31 30 28 25 20 16 13 12 11 11 15 17 18 19 19

GFSGL_prec_cthk_027.txt.gz
RH
32 32 33 29 25 25 26 26 24 20 25 36 38 41 40 42 45 48 51 50 49 48 48 47 46 46 47 52 58 60 63 71 67 69 75 79 80 78 77 75 72 71 67
32 33 34 33 26 22 24 27 21 21 31 32 38 40 42 45 48 49 51 54 53 48 47 48 50 48 48 50 51 57 60 62 65 72 73 77 79 82 81 78 80 80 81
33 31 33 35 28 21 22 24 20 24 30 33 38 39 43 44 44 46 48 52 53 54 52 50 51 49 50 50 49 54 57 56 58 66 70 73 77 79 83 85 86 87 89
32 29 28 31 28 20 20 22 23 24 29 32 35 39 42 45 46 48 50 51 52 54 59 60 58 54 50 50 51 53 57 60 61 67 69 71 79 83 84 83 84 89 89
33 30 29 29 29 22 18 19 24 26 29 31 35 40 44 46 48 50 51 51 51 54 61 67 70 60 53 49 51 53 54 60 64 63 63 68 74 80 81 81 88 84 75
37 31 32 31 28 23 20 20 24 27 29 30 32 36 39 43 46 50 51 51 55 56 62 75 72 67 56 52 51 53 57 61 65 65 65 70 75 83 84 82 83 72 68
39 34 34 33 30 26 23 23 23 26 28 28 29 31 34 38 42 46 48 53 58 64 66 70 70 70 61 54 56 55 58 63 68 68 65 71 76 79 80 86 79 73 69
40 35 37 36 32 30 26 23 25 28 27 27 28 31 36 38 42 45 48 55 66 70 68 69 71 68 61 54 52 54 59 64 74 70 67 73 76 82 86 83 76 73 75
37 38 35 34 35 32 30 25 25 28 30 29 29 33 37 39 42 47 56 67 70 65 67 70 70 62 60 54 51 55 59 62 63 63 69 76 82 85 77 78 77 74 67
36 34 33 33 34 35 32 31 28 28 29 32 33 35 39 41 48 59 65 66 66 68 70 72 68 60 57 53 52 57 57 67 64 66 77 76 79 81 75 73 65 54 51
37 34 36 34 33 33 36 43 37 32 31 35 37 41 45 50 58 66 63 60 66 72 73 69 65 57 53 53 54 56 59 58 71 73 76 79 76 68 64 54 46 45 46
39 40 38 37 36 36 37 41 47 47 42 39 38 47 54 55 60 63 67 74 66 77 72 70 66 58 56 54 54 57 59 61 67 73 72 70 62 54 47 42 42 43 45
42 40 38 41 42 41 41 40 47 50 57 59 53 55 52 57 61 60 62 64 69 69 69 67 55 52 56 54 51 53 55 61 67 65 60 52 44 43 40 41 44 45 43
45 40 38 39 38 41 46 52 52 59 58 63 67 66 65 65 60 62 60 59 65 68 65 62 57 56 48 45 50 53 59 59 59 54 45 40 37 36 36 41 45 45 40
31 35 40 41 41 47 48 48 49 52 58 65 74 74 75 84 78 72 60 63 66 65 59 60 53 47 44 49 50 49 51 49 44 43 40 37 37 37 38 42 43 41 38
34 36 43 47 41 47 57 57 51 57 75 72 81 97 95 90 72 75 67 65 61 64 66 60 57 45 50 51 47 44 43 39 40 38 37 34 35 37 39 38 38 37 29
53 56 51 48 49 54 63 77 80 70 80 84 79 78 85 61 75 68 60 64 70 68 57 56 42 47 48 45 42 37 36 36 36 33 31 30 32 35 36 34 34 27 20
42 50 70 76 72 66 77 92 75 92 92 79 89 70 63 65 63 67 76 74 68 62 64 41 39 43 41 41 36 32 34 34 32 30 28 28 28 29 29 27 23 21 17
64 74 76 82 92 95 82 79 72 57 68 74 70 69 64 67 66 71 69 62 54 43 35 35 40 40 40 36 31 30 32 30 30 28 26 22 24 24 21 20 20 17 19
73 87 96 80 81 75 64 63 57 59 67 73 67 67 69 67 61 59 50 51 47 41 42 38 39 39 37 32 31 32 30 29 28 24 20 20 20 19 20 20 18 18 20
81 86 85 80 66 62 65 72 68 75 75 70 71 68 64 63 56 52 57 53 45 39 34 40 44 39 35 35 35 34 29 25 22 19 17 17 18 18 19 18 16 18 20
67 65 64 62 60 63 65 68 71 71 69 69 69 69 63 55 53 51 52 54 43 43 46 45 37 33 35 36 33 30 29 26 21 16 16 16 17 18 17 16 16 18 19
67 73 72 71 66 60 60 63 65 69 72 71 70 62 52 54 57 61 57 53 54 53 43 43 38 37 35 34 31 28 24 22 19 18 15 16 16 17 17 14 16 18 19
68 72 77 79 82 85 85 88 87 79 74 80 79 74 71 73 77 75 70 64 56 53 55 50 43 38 36 35 32 28 23 19 18 16 14 15 15 15 13 12 16 17 18
84 81 81 83 87 90 87 82 83 86 87 85 85 85 85 79 75 72 67 66 61 60 57 48 44 43 41 34 35 29 25 19 16 14 14 14 15 14 12 12 14 17 19
76 84 84 86 87 86 86 85 86 88 88 88 89 90 88 85 75 67 66 63 57 57 54 47 42 42 38 38 34 31 30 27 23 17 14 14 13 12 11 12 16 17 19

GFSGL_prec_cthk_030.txt.gz
RH
32 31 31 32 33 30 26 28 30 29 27 23 32 38 42 45 47 47 48 48 47 45 47 46 49 49 46 44 48 48 51 59 59 58 57 60 64 69 72 78 77 77 77
33 33 31 32 34 32 26 26 29 31 25 23 30 36 41 45 46 46 45 47 50 48 46 47 48 53 52 49 46 46 48 51 56 59 57 61 63 63 68 68 73 80 80
35 35 31 30 34 33 28 25 26 31 24 21 29 33 38 41 44 45 46 47 51 54 53 51 51 55 58 58 51 48 47 48 49 52 55 59 63 65 64 66 71 74 78
39 36 32 28 30 32 29 23 21 28 26 22 29 31 36 39 43 44 46 48 50 52 54 56 58 60 62 60 56 53 50 48 49 53 56 61 64 65 65 67 72 72 75
40 36 28 29 32 30 28 24 19 23 23 23 29 31 34 38 41 42 46 48 51 55 55 58 63 68 67 60 58 54 53 51 51 52 59 62 65 64 64 66 68 76 77
41 32 34 33 35 31 29 25 19 19 25 26 27 29 33 36 39 43 46 49 52 57 57 58 64 73 71 64 57 54 50 50 51 52 59 62 67 66 67 66 73 72 74
42 37 35 36 35 35 32 28 21 17 22 27 29 30 31 35 41 46 49 46 47 52 57 60 64 71 70 63 62 55 50 49 51 57 68 68 69 67 66 69 72 74 74
37 40 38 37 36 35 35 32 27 23 20 23 28 31 33 36 42 47 48 44 43 49 55 62 70 69 66 64 65 57 50 48 53 63 66 68 65 64 70 74 72 70 69
35 39 40 40 39 38 37 32 30 27 24 23 27 31 32 35 37 42 45 44 43 49 54 67 72 72 66 65 63 57 48 46 53 57 58 68 63 68 72 73 70 64 56
34 39 41 43 42 39 38 39 34 34 30 25 26 28 31 34 35 38 41 41 43 50 58 65 68 68 68 70 67 61 52 52 55 58 59 61 68 65 69 68 56 47 40
34 38 41 45 45 45 42 44 43 39 37 36 29 29 31 33 35 38 40 43 47 61 65 61 66 68 68 67 66 58 55 52 53 56 57 63 63 65 57 50 43 38 35
41 43 45 48 44 41 41 43 48 51 52 46 45 39 31 34 38 37 40 43 58 66 60 64 67 67 63 65 63 54 51 51 56 58 55 61 60 51 47 39 37 34 38
44 45 49 54 50 49 49 51 44 48 66 66 60 53 49 46 39 45 53 64 74 68 71 65 61 62 60 64 56 51 49 52 58 51 57 57 50 41 36 33 32 37 40
40 49 48 51 52 49 55 51 52 51 42 46 47 50 57 52 47 53 61 71 81 86 73 78 73 65 63 60 65 52 45 52 50 52 53 47 39 37 36 35 35 36 40
28 31 36 38 42 49 56 55 60 62 62 63 66 59 75 71 70 78 90 96 76 96 77 76 73 67 62 61 51 46 44 47 50 47 43 37 36 34 34 35 35 37 34
30 29 29 31 36 45 53 52 54 56 57 68 78 77 72 83 92 86 88 86 87 91 84 69 65 60 62 47 48 46 47 45 45 36 36 33 34 33 35 33 35 34 29
31 30 32 33 35 37 41 48 55 59 65 71 76 80 81 81 82 87 74 82 83 80 72 68 60 61 57 56 43 43 46 42 36 33 32 30 28 30 32 32 31 27 21
31 30 28 29 37 39 45 53 58 62 68 68 69 72 68 65 83 72 68 75 75 79 71 66 60 58 52 44 40 41 40 34 33 31 30 27 26 28 28 26 24 19 17
38 38 39 40 42 49 54 58 65 73 76 80 86 83 79 74 75 71 65 74 87 82 74 66 60 47 46 47 39 39 35 33 31 31 29 26 24 23 22 21 18 16 13
45 45 44 50 58 67 80 91 97 94 95 81 82 90 85 69 72 63 74 92 88 78 66 56 50 47 42 40 41 36 33 31 29 28 26 22 19 18 17 18 17 14 12
49 51 53 51 59 75 86 85 93 75 89 77 71 79 81 72 65 69 75 72 66 54 49 48 48 46 44 42 41 36 34 29 27 23 22 18 15 15 17 18 15 12 13
48 55 60 58 64 74 72 73 69 80 69 73 86 82 75 74 65 62 63 57 51 49 48 52 44 43 42 42 38 36 33 29 27 24 19 15 15 16 18 17 15 12 14
63 66 61 56 63 70 75 68 73 74 80 81 74 67 66 60 64 62 53 51 52 57 56 51 48 47 43 43 38 33 28 25 23 21 18 16 15 17 17 16 14 12 14
69 79 78 76 79 74 70 70 72 71 67 67 68 65 64 64 63 58 56 65 71 66 61 57 55 54 54 47 38 32 29 25 22 20 17 15 15 16 16 14 10 12 13
82 80 81 84 90 89 84 79 74 80 81 79 77 75 71 72 70 72 80 82 79 76 69 68 65 62 49 44 41 35 31 23 20 17 15 14 14 15 14 12 11 11 13
79 83 89 91 87 91 91 90 89 92 94 93 91 93 93 94 91 90 89 84 82 77 76 68 59 55 57 52 44 36 31 28 26 21 16 14 14 13 11 12 12 12 14

GFSGL_prec_cthk_033.txt.gz
RH
34 32 27 25 25 30 29 29 29 29 30 32 28 27 35 40 45 47 48 47 46 45 44 45 47 49 47 47 50 46 43 43 45 48 47 51 52 58 55 57 62 64 68
33 34 33 31 30 30 29 29 29 27 29 33 28 25 32 40 43 46 48 48 45 43 43 43 45 47 49 48 52 52 51 47 47 48 49 49 49 53 57 59 57 61 62
33 33 34 33 30 31 32 31 31 28 25 29 30 23 29 38 41 46 47 45 43 43 45 45 45 47 49 51 55 56 53 52 48 49 50 50 51 53 57 59 60 58 59
35 34 33 32 30 29 30 33 31 30 25 25 31 23 29 36 39 43 46 44 42 43 47 49 50 52 54 51 56 57 54 52 49 48 48 51 54 58 57 59 61 60 62
35 35 35 33 32 31 31 30 32 30 25 21 29 25 26 32 36 39 44 43 43 44 46 48 50 54 59 59 59 56 54 54 51 49 49 49 52 57 59 63 61 61 64
39 37 39 36 32 30 33 34 30 29 24 22 23 24 25 27 30 35 40 40 41 42 43 46 50 54 59 61 61 60 56 56 53 50 51 50 53 61 59 64 61 65 71
39 40 40 39 34 32 35 38 34 30 28 21 19 22 23 26 27 31 35 38 40 39 42 46 49 51 56 60 67 64 58 55 56 49 49 51 58 64 62 62 59 68 69
37 41 46 50 39 36 37 37 35 33 30 28 23 21 23 26 28 30 34 39 38 39 43 46 49 51 56 65 73 71 63 60 63 58 49 48 54 57 57 63 60 62 62
36 37 37 39 43 36 41 40 37 37 35 28 26 27 26 25 27 32 35 39 38 40 44 45 48 51 55 66 70 72 69 71 68 60 50 49 51 53 54 56 61 67 60
29 31 32 38 44 44 46 46 44 41 41 37 34 24 24 27 29 34 39 42 42 43 43 45 47 51 57 66 73 72 75 74 73 59 50 47 49 49 56 57 57 53 49
33 31 31 37 42 44 53 53 55 58 53 45 41 38 29 25 26 30 37 45 46 42 42 43 44 52 64 72 73 70 73 80 74 61 52 47 48 48 53 52 45 40 37
29 32 34 36 39 45 49 55 61 62 60 57 50 48 43 40 33 29 29 37 39 45 43 44 47 56 80 80 72 73 75 80 71 66 62 46 49 47 49 43 38 34 28
32 32 35 38 40 44 48 52 62 55 55 57 57 51 47 48 55 50 42 39 42 42 51 51 55 74 83 83 78 78 80 76 71 63 57 47 43 48 43 35 33 30 26
31 34 40 41 45 46 49 54 55 59 63 56 47 50 51 51 48 43 56 74 76 75 70 63 70 96 96 85 84 80 81 75 64 56 57 44 44 45 36 31 31 27 26
31 33 37 38 40 41 47 48 50 48 57 55 54 53 52 48 50 50 58 60 69 79 89 93 96 98 92 89 87 84 80 68 59 62 46 43 42 38 30 31 30 27 27
23 24 25 26 28 31 35 34 37 40 46 50 54 59 60 57 55 54 63 73 72 77 86 85 86 93 89 82 81 75 70 65 69 50 45 41 37 31 30 31 28 27 26
28 28 27 27 28 28 29 31 33 35 37 40 44 54 64 66 70 68 68 75 89 88 86 85 82 87 86 87 75 70 66 64 56 42 41 35 32 28 30 27 26 24 23
32 30 29 28 27 31 32 33 34 36 40 43 45 52 58 66 76 76 76 77 83 74 81 78 74 84 86 79 67 61 60 50 44 41 35 32 27 26 25 24 23 21 19
36 35 36 33 32 36 38 44 46 49 49 49 54 66 66 70 71 72 66 63 65 65 72 76 74 84 80 70 64 61 52 53 48 37 34 30 26 26 24 21 18 17 15
40 39 40 42 42 40 42 46 52 57 61 73 88 98 96 85 81 75 72 66 68 72 72 82 84 85 72 68 64 56 47 43 39 36 32 28 27 24 20 16 15 15 16
49 46 44 48 47 44 48 53 59 67 75 88 88 86 94 97 98 89 77 78 75 75 87 90 86 78 64 58 52 48 45 40 37 34 30 29 22 20 15 15 16 15 14
53 50 49 50 45 48 52 54 58 62 67 72 75 87 92 92 90 93 88 86 77 87 89 79 68 54 50 52 50 44 42 38 36 34 31 24 18 15 15 15 15 15 14
63 58 51 50 52 54 60 62 64 67 73 77 74 78 86 89 94 95 88 80 76 72 64 54 47 47 53 52 43 41 40 38 36 32 26 21 17 15 15 15 15 15 15
70 68 59 58 59 63 64 62 66 73 80 85 85 88 92 92 86 78 72 70 64 57 50 48 52 58 55 50 48 47 44 38 30 23 19 18 18 16 16 15 15 15 17
75 70 68 74 76 76 71 71 73 74 71 71 76 80 76 77 74 76 75 68 63 60 59 61 66 64 60 60 56 51 43 36 25 20 18 17 16 16 15 14 14 15 16
69 72 80 82 83 85 84 83 81 79 77 78 80 84 83 82 81 79 75 76 73 73 74 75 73 70 65 58 55 50 42 31 23 18 15 14 15 16 15 13 14 15 18

GFSGL_prec_cthk_036.txt.gz
RH
30 27 27 24 22 24 26 25 25 27 28 30 28 25 27 31 35 38 43 46 43 40 39 40 41 44 49 49 47 49 51 49 48 46 46 44 40 44 49 50 53 56 59
34 32 28 28 24 21 21 25 27 27 27 27 29 28 25 27 35 37 39 44 44 41 39 39 40 43 42 47 50 51 53 53 51 51 49 47 44 43 45 45 51 55 58
38 32 31 30 28 25 24 26 27 28 28 25 24 27 26 25 29 36 37 40 44 42 39 38 38 39 40 46 48 50 54 54 51 51 53 51 46 45 47 49 53 54 54
40 36 33 32 29 29 28 28 29 30 31 29 24 22 25 23 22 31 35 38 40 41 38 38 39 39 41 44 47 48 55 59 58 54 55 51 48 49 50 54 58 58 59
43 39 36 33 33 33 31 29 32 32 34 36 32 24 23 26 19 24 29 34 36 38 37 35 37 41 43 46 49 52 57 62 63 61 59 59 61 52 50 57 59 61 61
40 40 41 38 36 35 33 31 34 36 36 34 32 25 22 25 20 20 26 31 33 36 36 36 38 41 45 47 49 52 55 63 65 67 67 67 68 59 52 54 54 58 59
34 41 41 42 39 39 38 36 36 36 40 38 36 28 20 19 19 18 21 27 31 34 36 38 41 44 42 47 53 57 58 61 68 69 67 70 71 63 57 53 55 60 65
29 38 42 41 41 45 45 42 37 37 39 40 38 33 27 18 18 20 24 28 30 35 36 37 39 43 46 49 55 60 62 66 70 72 68 71 71 74 59 53 57 56 58
27 34 39 41 45 49 48 44 51 53 47 47 49 44 34 25 21 19 23 27 29 30 33 36 39 42 46 51 59 62 65 70 73 77 71 73 68 64 64 61 58 62 61
26 33 37 37 42 46 48 52 49 54 53 55 52 48 42 37 25 21 25 29 33 35 37 40 41 41 46 50 54 59 65 74 83 77 77 76 68 67 67 64 56 57 56
31 34 38 34 40 44 43 42 45 46 49 55 57 56 50 43 40 34 23 25 28 31 36 39 40 41 46 49 56 61 59 70 87 81 82 77 69 71 64 49 50 52 48
28 31 32 30 33 36 36 37 37 46 48 49 50 51 46 43 42 41 36 35 29 30 32 33 38 41 46 54 60 64 71 78 91 81 87 81 75 76 61 52 50 46 39
26 29 34 34 34 35 35 37 41 47 50 52 52 51 54 54 47 44 42 42 39 39 41 46 46 43 45 53 57 63 67 92 96 92 83 78 78 73 61 48 48 40 30
26 31 35 37 38 39 41 44 43 43 46 47 51 58 55 56 53 46 42 47 52 60 61 65 62 67 73 71 71 71 77 69 87 89 87 76 75 72 58 48 47 35 30
24 32 37 36 37 39 39 42 44 46 47 48 46 52 58 52 43 46 50 62 70 76 73 77 78 79 86 89 98 91 94 92 83 82 83 76 79 74 54 49 44 33 31
26 26 29 32 36 36 38 39 39 40 42 41 40 40 45 44 45 55 67 73 78 80 78 80 82 84 92 93 90 85 90 97 95 91 81 79 76 65 49 47 36 31 34
28 26 28 27 33 34 37 38 38 39 34 35 37 39 41 43 46 54 62 70 76 82 79 80 84 77 82 72 75 81 85 88 98 90 75 77 69 51 47 42 33 32 28
26 26 29 29 30 34 35 36 39 39 39 38 36 40 44 47 45 45 50 59 68 79 79 81 83 81 70 69 72 76 87 95 87 76 77 65 52 50 43 35 34 29 26
37 38 36 37 36 37 38 40 40 39 39 40 40 42 44 47 45 51 64 67 76 79 77 77 76 78 73 66 74 86 79 82 73 74 61 53 56 46 38 29 30 27 23
40 38 42 45 45 45 44 45 44 44 47 48 49 52 54 56 62 72 79 84 82 99 99 87 79 78 78 78 83 90 88 67 72 62 56 54 49 39 32 28 25 26 18
47 47 50 53 51 47 46 45 48 49 54 59 60 58 62 67 70 71 80 83 86 90 98 95 88 87 88 91 95 89 80 70 60 59 55 50 42 33 29 25 23 20 18
53 53 54 52 53 53 52 52 52 53 55 57 59 62 62 64 71 79 83 90 93 90 97 97 95 97 94 91 87 82 67 61 59 56 49 42 36 30 25 22 20 19 18
60 55 55 59 59 56 59 59 57 63 60 60 64 65 67 71 75 81 92 93 95 98 99 99 99 98 92 81 70 63 62 61 57 45 41 37 35 28 23 21 20 19 19
68 67 70 67 65 68 68 64 63 66 65 63 69 71 72 76 82 87 92 96 89 88 88 87 80 70 63 57 55 58 59 53 42 40 36 36 34 28 24 20 20 19 18
69 69 74 76 79 80 80 76 73 73 68 69 73 75 80 84 86 86 81 77 76 80 76 70 67 58 55 54 55 57 53 53 50 46 40 35 30 26 22 21 20 18 16
72 77 78 79 78 82 86 84 79 76 75 75 76 78 78 81 84 81 81 77 72 72 68 67 65 60 59 62 63 60 59 57 50 38 34 32 29 25 22 21 20 17 17

GFSGL_prec_cthk_042.txt.gz
RH
14 13 14 17 18 18 19 20 23 24 28 26 33 27 26 25 21 22 23 30 32 36 38 36 35 36 39 45 44 47 48 49 48 50 53 52 54 54 53 47 44 44 50
25 23 21 19 19 19 19 19 20 24 27 27 29 29 27 25 21 21 19 24 29 33 35 37 37 36 37 40 43 44 47 48 49 52 56 57 57 59 57 57 53 52 55
38 36 33 30 28 25 23 21 20 19 20 22 24 26 23 22 23 20 20 20 24 31 35 37 38 37 35 36 39 42 46 46 47 46 48 55 58 59 60 63 59 57 58
46 45 43 39 35 33 32 28 24 22 19 22 22 25 28 26 25 22 21 22 20 26 33 36 36 34 34 34 35 38 39 43 44 45 46 47 53 58 60 63 64 64 61
46 46 45 47 43 40 37 36 33 26 23 22 23 26 28 28 25 23 19 20 22 17 23 30 31 31 33 34 35 37 38 38 41 44 47 49 51 57 62 66 69 69 67
42 43 46 48 49 46 41 40 39 36 31 29 28 27 30 32 28 23 21 19 20 19 16 20 26 29 30 33 34 36 36 36 38 42 45 48 51 55 62 69 72 71 69
39 40 40 41 44 46 47 43 42 39 38 35 35 30 30 32 37 34 27 25 22 20 18 15 18 23 28 30 33 36 36 35 36 42 43 49 53 56 60 69 74 75 73
36 35 36 36 34 39 42 44 44 44 41 39 40 38 31 31 34 37 40 37 31 29 25 21 19 18 21 24 26 30 31 34 35 41 45 50 57 62 62 66 71 73 74
30 32 33 34 35 32 35 38 46 47 46 43 44 43 35 33 38 39 42 46 43 39 34 29 30 27 23 25 25 25 30 35 39 42 49 53 60 65 69 67 77 80 79
30 30 32 34 35 35 33 34 38 43 45 47 44 44 46 42 42 45 51 54 51 48 49 44 40 39 42 32 30 29 28 28 35 43 49 52 55 59 65 70 83 88 86
26 30 31 32 33 32 34 33 34 36 40 40 44 44 44 42 41 46 52 56 55 58 57 52 50 49 52 50 48 45 37 38 35 37 38 45 56 67 76 77 86 89 91
16 18 23 27 29 29 30 32 35 36 37 38 41 43 42 45 47 47 48 52 54 59 56 57 58 53 58 60 56 52 50 53 53 52 53 51 57 63 70 79 87 91 94
14 16 14 15 16 18 23 28 33 37 41 41 43 43 45 48 49 49 47 46 49 56 58 62 60 62 65 64 63 65 67 70 70 64 63 66 70 70 79 83 85 92 94
15 16 16 17 18 21 24 30 35 39 41 45 48 48 47 49 47 45 45 46 49 51 54 60 62 66 69 68 63 71 78 77 77 75 74 64 75 88 81 83 91 92 96
19 20 20 21 24 25 28 35 38 38 44 47 46 45 46 47 49 48 52 53 54 56 58 61 63 62 64 63 65 62 67 70 72 81 87 76 78 87 87 81 90 94 95
24 24 24 28 31 32 36 35 40 42 42 45 48 51 52 50 51 52 50 53 50 48 47 48 49 49 52 57 61 65 68 69 72 78 80 82 88 98 96 93 95 97 94
30 31 31 32 36 35 38 40 40 43 44 46 48 48 47 44 43 43 44 44 45 48 50 48 48 52 55 57 55 60 64 67 68 73 79 87 96 96 93 94 94 97 92
33 34 35 39 39 41 41 41 46 43 42 40 38 37 37 37 35 34 34 35 39 44 48 52 52 52 53 54 57 58 66 63 72 71 92 99 95 94 99 95 88 90 84
38 38 38 36 37 39 42 44 42 40 40 39 36 33 32 30 31 32 34 36 36 39 43 47 52 55 59 63 68 74 74 80 90 93 99 99 97 95 92 96 96 93 89
39 40 41 39 36 38 38 34 33 34 34 34 35 35 36 36 37 38 38 38 41 43 48 53 59 61 60 64 69 78 86 89 94 88 89 96 94 95 99 97 94 95 72
40 41 41 39 39 39 39 39 39 40 42 43 42 42 42 44 43 40 41 43 44 47 47 49 52 55 58 64 71 77 82 91 94 93 92 97 97 99 92 85 88 75 61
48 49 51 49 48 47 49 53 53 51 51 50 53 51 49 50 47 47 48 48 50 52 51 51 55 59 68 74 80 85 93 94 93 94 95 96 96 91 83 77 70 63 55
61 59 59 56 54 56 55 57 56 55 54 54 56 56 58 56 53 51 54 55 54 55 59 60 60 64 68 79 76 77 77 81 86 89 88 85 81 78 69 70 66 62 55
67 70 67 65 65 64 62 63 61 62 62 63 63 63 65 64 63 59 63 66 63 62 63 63 64 72 71 79 79 83 82 78 76 77 73 69 67 64 62 61 61 55 48
77 76 73 76 74 73 73 71 70 71 72 72 70 70 72 72 72 70 74 74 71 72 65 66 69 71 75 78 80 79 80 76 73 70 66 64 65 66 65 60 52 45 39
83 81 79 78 76 76 75 76 77 77 78 78 78 75 74 72 69 73 74 75 74 76 70 68 70 71 75 79 81 82 79 70 68 63 63 62 65 63 60 54 50 43 38

GFSGL_prec_cthk_045.txt.gz
RH
17 17 16 14 13 15 16 15 16 19 20 22 24 26 26 27 28 27 22 23 31 35 38 39 37 35 39 42 44 45 45 44 44 49 53 55 53 53 54 54 55 56 52
15 15 16 16 17 17 17 15 16 17 20 23 23 25 27 28 29 29 24 20 22 29 34 37 37 35 35 39 42 44 45 46 45 41 41 45 50 54 56 56 56 59 58
18 18 17 19 18 17 17 17 16 16 17 20 25 24 23 22 22 21 22 21 19 19 25 30 35 37 34 35 38 41 42 43 42 42 40 41 45 49 53 61 65 64 61
29 28 28 26 23 22 23 21 22 19 19 19 21 23 26 26 25 25 23 21 23 20 19 22 26 32 35 34 33 34 37 40 41 41 43 44 45 48 52 55 62 67 66
36 36 36 35 33 30 30 29 27 25 25 27 26 25 26 27 26 25 24 22 19 20 21 17 19 23 27 31 33 33 33 35 37 40 42 44 48 48 48 51 55 64 67
38 41 41 41 43 41 36 35 34 32 27 28 30 31 27 28 31 28 23 21 19 19 19 19 17 17 20 24 27 30 33 33 32 35 37 39 41 46 50 54 57 59 65
38 40 40 42 44 46 46 42 36 37 35 33 31 33 34 30 32 35 35 32 29 27 26 23 22 21 19 21 23 26 29 33 34 35 34 35 38 43 48 52 57 58 62
40 41 41 40 39 39 41 40 43 42 39 38 37 35 35 33 31 34 38 41 42 41 39 36 34 32 30 33 30 29 29 30 32 39 38 38 40 44 51 56 60 64 66
39 37 38 39 39 40 36 37 41 43 47 44 42 38 38 38 35 38 46 47 47 47 50 51 51 48 44 43 43 41 41 29 26 30 31 35 39 43 47 53 59 64 65
39 37 37 38 38 36 34 37 38 39 40 43 44 43 39 40 46 49 48 51 50 52 59 56 53 54 58 56 55 51 47 46 45 39 40 40 38 40 47 51 56 60 65
33 33 32 32 32 31 34 38 40 38 38 38 38 41 40 41 46 48 50 51 49 51 50 49 52 55 61 61 65 63 53 60 60 56 53 54 54 55 54 57 61 60 69
32 35 32 31 31 30 29 31 34 37 38 37 37 37 34 37 42 47 47 48 50 53 49 50 54 58 58 59 60 59 62 66 68 68 68 66 70 70 72 68 62 67 72
22 25 26 25 23 23 23 23 27 30 31 33 33 35 37 38 41 41 44 47 53 52 49 49 52 58 61 59 58 58 64 68 70 70 64 68 72 76 89 91 85 81 92
18 18 16 15 15 17 19 20 21 24 26 29 34 37 43 43 43 44 48 47 46 48 52 53 54 55 60 62 62 61 61 68 69 69 75 77 80 72 73 84 91 93 93
16 15 15 13 15 19 22 22 23 25 29 32 37 41 44 44 46 47 50 50 51 52 54 54 55 55 56 55 52 53 57 61 67 71 78 75 76 80 80 83 97 98 99
24 23 20 19 20 22 23 24 26 29 34 37 40 44 47 46 48 50 53 53 55 55 51 49 47 46 48 48 49 53 51 54 65 68 72 78 81 88 74 69 79 98 95
31 31 29 27 27 26 27 29 32 32 36 43 43 44 47 49 51 54 52 52 48 46 45 43 41 43 44 46 52 53 54 58 65 69 70 70 69 77 80 85 98 99 99
36 36 36 35 35 35 36 35 34 35 38 42 44 47 49 46 45 41 40 39 38 37 35 36 39 42 44 46 50 51 51 51 58 62 67 69 74 83 83 99 97 96 97
39 39 39 39 40 38 40 41 40 41 41 43 46 46 44 41 37 33 30 29 30 32 36 41 41 42 44 48 48 48 51 56 63 68 75 80 81 85 86 93 91 97 96
40 40 43 45 47 48 48 50 51 51 50 47 46 43 39 33 31 31 32 33 35 37 39 40 40 42 45 47 46 46 50 56 65 74 84 88 89 86 85 85 90 95 96
36 43 45 48 51 50 51 53 52 53 53 50 43 38 36 35 35 35 36 37 41 42 42 41 39 40 42 46 48 53 57 65 70 76 82 90 93 92 88 90 98 95 94
43 45 48 48 47 49 48 46 46 48 45 43 42 41 42 43 42 43 46 47 46 47 48 48 46 44 47 52 54 58 62 64 71 76 81 85 84 84 84 84 86 87 82
54 52 54 51 48 48 49 50 49 48 47 46 48 50 50 51 53 54 55 56 55 54 53 52 51 51 56 57 61 63 66 68 74 75 80 80 84 85 84 79 73 66 65
59 64 59 57 54 52 53 55 56 56 55 56 57 58 59 60 59 58 59 59 60 59 58 58 57 60 60 62 66 67 68 72 72 74 74 68 62 63 63 65 67 64 65
71 69 77 70 66 60 59 60 58 62 64 64 64 65 64 64 65 65 66 66 64 64 64 64 66 63 66 66 71 69 65 71 74 73 73 69 64 70 67 68 65 65 61
86 87 90 94 87 78 74 73 70 68 70 71 72 71 71 70 71 70 70 71 73 72 67 63 60 61 66 72 77 75 74 74 77 76 76 76 73 70 69 70 69 68 62

GFSGL_prec_cthk_048.txt.gz
RH
21 21 22 21 18 16 15 14 14 15 16 18 19 23 29 34 35 33 30 27 30 35 36 38 36 35 37 39 39 39 39 40 42 42 42 43 44 46 49 50 54 56 57
17 19 19 18 17 16 15 15 15 16 17 18 20 23 28 28 30 30 30 29 23 26 33 35 36 36 35 34 38 40 41 40 37 35 37 38 40 42 45 49 53 55 59
16 16 16 18 20 20 18 16 15 15 15 19 22 22 21 23 26 26 26 26 24 19 22 28 30 33 34 34 33 35 37 39 40 39 38 39 41 44 47 48 49 52 59
13 14 16 19 20 21 20 19 18 16 16 15 18 19 19 20 22 24 26 24 22 22 21 20 23 26 30 32 34 33 33 35 36 38 41 43 45 46 48 50 52 54 57
22 20 19 19 20 22 22 22 19 17 17 19 18 21 23 25 25 27 27 27 24 22 23 23 21 20 23 26 28 31 35 34 34 37 39 41 42 44 46 49 51 53 56
31 31 32 31 28 29 27 26 25 23 21 22 25 26 24 26 30 32 30 27 25 24 24 23 24 22 19 21 23 27 32 33 37 37 37 38 40 44 47 48 48 50 52
37 39 39 37 39 40 36 33 32 31 28 26 24 26 29 28 30 34 37 37 33 31 31 32 31 28 26 26 25 29 32 32 34 37 39 37 38 39 42 43 44 47 50
39 41 42 40 42 45 45 43 41 38 38 37 34 32 30 35 33 35 39 41 42 42 43 43 43 43 44 43 38 39 42 39 36 37 38 30 28 32 39 41 42 44 50
40 45 45 41 42 43 41 42 43 44 44 44 42 41 39 40 42 39 40 44 45 43 43 46 48 51 55 56 56 55 52 48 54 48 47 52 57 49 45 47 46 49 49
39 42 45 47 43 39 39 40 40 40 42 44 46 45 41 40 42 45 49 49 45 46 48 46 47 49 51 55 58 61 59 57 62 61 59 59 62 63 65 65 61 54 54
46 48 46 45 44 42 41 37 36 38 38 37 38 41 44 46 43 42 46 50 51 50 48 46 48 49 50 54 57 57 56 66 67 67 64 64 65 67 70 74 81 82 83
39 41 40 41 41 39 38 38 38 39 40 41 41 38 37 39 43 43 42 44 47 48 46 47 48 50 50 51 52 50 56 63 65 69 64 60 64 68 71 77 79 82 96
38 39 38 39 38 39 39 37 35 33 34 35 37 39 38 39 37 39 40 42 44 46 47 50 50 51 52 54 56 58 62 66 66 64 60 57 54 54 59 61 68 74 83
30 31 32 33 33 33 32 30 27 24 24 25 26 28 31 33 36 38 41 44 46 47 46 48 50 53 55 55 55 56 59 60 59 58 56 56 61 66 69 67 70 75 81
27 23 20 20 20 21 22 23 23 22 22 21 20 22 25 28 30 37 41 46 50 50 51 53 54 54 53 55 53 49 48 54 54 59 59 57 61 64 66 66 69 72 75
25 27 26 23 21 20 20 20 22 23 24 24 24 27 29 32 34 40 44 48 49 50 51 52 54 54 52 47 45 42 44 49 50 57 57 57 58 61 65 68 75 74 74
26 27 27 26 25 24 23 22 24 26 27 27 31 33 34 35 38 45 47 48 49 49 50 51 45 42 42 42 43 44 45 47 49 57 57 57 55 57 66 75 85 92 89
28 29 29 29 30 30 30 28 26 28 31 34 37 40 44 43 42 44 46 49 49 47 42 38 36 34 35 36 38 39 39 42 47 51 54 57 60 65 66 74 80 87 88
31 31 32 30 33 35 37 36 38 42 41 41 41 40 42 44 45 46 46 44 38 34 30 29 30 32 34 37 40 40 40 41 43 44 47 54 61 62 68 74 78 84 87
33 33 35 36 36 39 43 45 46 50 51 50 47 47 47 46 44 41 39 35 30 30 31 32 33 34 36 38 38 38 40 41 43 45 48 55 60 64 70 72 77 81 88
36 36 36 38 39 46 48 54 50 52 55 55 53 51 50 51 48 44 38 34 34 35 35 35 36 38 39 40 42 44 47 47 47 48 52 55 59 66 72 76 80 83 83
39 39 40 40 38 39 41 44 55 59 58 59 60 59 56 52 49 42 40 40 41 42 41 41 43 44 45 47 47 51 52 53 52 52 56 58 62 65 72 76 81 84 85
39 44 45 45 43 42 41 44 47 50 54 55 55 55 54 52 47 44 44 45 46 45 45 47 49 51 52 53 54 56 57 59 57 57 59 61 66 68 67 70 74 78 81
44 50 50 52 57 52 49 50 52 53 52 53 52 51 51 50 50 50 51 51 52 53 52 54 56 57 57 58 61 64 62 62 60 60 63 64 64 70 71 69 67 68 66
40 45 44 50 58 63 57 62 59 60 62 62 61 60 59 58 57 56 56 57 59 60 59 61 63 66 68 68 70 74 72 67 67 64 63 65 63 63 67 65 58 59 60
47 51 55 53 73 87 75 70 75 70 67 68 69 66 66 66 64 63 63 62 61 62 65 64 65 67 69 70 72 77 78 72 69 69 69 72 71 72 73 70 67 63 68